Greybull, WY

9:57 AM MDT on July 24, 2017 (GMT -0600)
South Big Horn County

Weather History for KGEY - January, 2014

Change the Weather History Date:

Monday, January 13, 2014

  Actual Average Record
Temperature  
Mean Temperature 40 °F 16 °F  
Max Temperature 50 °F 29 °F 50 °F (2014)
Min Temperature 29 °F 5 °F -20 °F (2017)
Degree Days  
Heating Degree Days 25 48  
Month to date heating degree days 547 635  
Since 1 July heating degree days 3662 3958  
Cooling Degree Days 0 0  
Month to date cooling degree days 0 0  
Year to date cooling degree days 0 0  
Moisture  
Dew Point 23 °F    
Average Humidity 56    
Maximum Humidity 69    
Minimum Humidity 42    
Precipitation  
Precipitation 0.00 in 0.00 in 0.10 in (1976)
Month to date precipitation T 0.11  
Year to date precipitation T 0.11  
Sea Level Pressure  
Sea Level Pressure 29.96 in    
Wind  
Wind Speed 10 mph (ESE)    
Max Wind Speed 33 mph    
Max Gust Speed 42 mph    
Visibility 10 miles    
Events      
T = Trace of Precipitation, MM = Missing Value Source: NWS Daily Summary

Daily Weather History Graph

Daily Weather History Graph

Search for Another Location

Airport or City:

Trip Planner

Search our weather history database for the weather conditions in past years. The results will help you decide how hot, cold, wet, or windy it might be!

Date:

Astronomy

Jan. 13, 2014 Rise Set
Actual Time 7:46 AM MST 4:56 PM MST
Civil Twilight 7:13 AM MST 5:28 PM MST
Nautical Twilight 6:37 AM MST 6:04 PM MST
Astronomical Twilight 6:02 AM MST 6:39 PM MST
Moon 3:14 PM MST (1/13) 5:36 AM MST (1/13)
Length of Visible Light 10h 14m
Length of Day
9h 09m
Waxing Gibbous, 95% of the Moon is Illuminated
Jan 13
Waxing Gibbous
Jan 15
Full
Jan 23
Last Quarter
Jan 30
New
Feb 6
First Quarter

Hourly Weather History & Observations

Time (MST) Temp. Windchill Dew Point Humidity Pressure Visibility Wind Dir Wind Speed Gust Speed Precip Events Conditions
12:53 AM 28.9 °F 21.9 °F 19.0 °F 67% 29.91 in 10.0 mi SE 6.9 mph - N/A   Overcast
1:53 AM 30.0 °F - 19.9 °F 66% 29.92 in 10.0 mi Calm Calm - N/A   Overcast
2:53 AM 30.0 °F 26.5 °F 19.9 °F 66% 29.91 in 10.0 mi SE 3.5 mph - N/A   Overcast
3:53 AM 30.9 °F 25.2 °F 19.9 °F 64% 29.91 in 10.0 mi ESE 5.8 mph - N/A   Overcast
4:53 AM 30.9 °F 25.2 °F 19.9 °F 64% 29.92 in 10.0 mi SSE 5.8 mph - N/A   Overcast
5:53 AM 30.0 °F 25.2 °F 21.0 °F 69% 29.92 in 10.0 mi South 4.6 mph - N/A   Overcast
6:53 AM 30.9 °F 22.8 °F 18.0 °F 59% 29.92 in 10.0 mi SSE 9.2 mph - N/A   Overcast
7:53 AM 32.0 °F 25.6 °F 18.0 °F 56% 29.94 in 10.0 mi SE 6.9 mph - N/A   Overcast
8:53 AM 30.9 °F 24.3 °F 19.9 °F 64% 29.96 in 10.0 mi East 6.9 mph - N/A   Scattered Clouds
9:53 AM 35.1 °F 27.9 °F 21.0 °F 57% 29.96 in 10.0 mi SE 9.2 mph - N/A   Partly Cloudy
10:53 AM 37.0 °F 31.6 °F 23.0 °F 57% 29.95 in 10.0 mi ESE 6.9 mph - N/A   Clear
11:53 AM 42.1 °F 36.1 °F 25.0 °F 51% 29.91 in 10.0 mi ESE 10.4 mph - N/A   Clear
12:53 PM 44.1 °F 39.0 °F 26.1 °F 49% 29.88 in 10.0 mi East 9.2 mph - N/A   Clear
1:53 PM 45.0 °F 40.1 °F 26.1 °F 48% 29.88 in 10.0 mi East 9.2 mph - N/A   Clear
2:53 PM 46.9 °F - 26.1 °F 44% 29.87 in 10.0 mi East 8.1 mph - N/A   Clear
3:53 PM 48.0 °F - 27.0 °F 44% 29.89 in 10.0 mi ESE 3.5 mph - N/A   Scattered Clouds
4:53 PM 46.9 °F - 24.1 °F 41% 29.91 in 10.0 mi WNW 9.2 mph - N/A   Overcast
5:53 PM 43.0 °F 38.2 °F 26.1 °F 51% 29.94 in 10.0 mi NW 8.1 mph - N/A   Overcast
6:53 PM 43.0 °F 36.8 °F 26.1 °F 51% 29.96 in 10.0 mi NW 11.5 mph - N/A   Mostly Cloudy
7:53 PM 44.1 °F 37.1 °F 26.1 °F 49% 29.96 in 10.0 mi NNW 15.0 mph - N/A   Mostly Cloudy
8:53 PM 39.0 °F 29.3 °F 26.1 °F 60% 30.05 in 10.0 mi NW 19.6 mph 33.4 mph N/A   Overcast
9:53 PM 36.0 °F 25.3 °F 25.0 °F 64% 30.09 in 10.0 mi NW 19.6 mph - N/A   Overcast
10:53 PM 36.0 °F 23.9 °F 24.1 °F 62% 30.16 in 10.0 mi NW 25.3 mph 32.2 mph N/A   Overcast
11:53 PM 34.0 °F 20.1 °F 24.1 °F 67% 30.21 in 10.0 mi NNW 31.1 mph 38.0 mph N/A   Overcast